Time,TemperatureF,DewpointF,PressureIn,WindDirection,WindDirectionDegrees,WindSpeedMPH,WindSpeedGustMPH,Humidity,HourlyPrecipIn,Conditions,Clouds,dailyrainin,SoftwareType,DateUTC
2013-04-16 00:02:00,27.0,26.0,29.73,North,10,5.0,9.0,96,-99.99,,,-99.99,,2013-04-16 06:02:00,
2013-04-16 00:07:00,27.0,26.0,29.73,North,350,6.0,8.0,97,-99.99,,,-99.99,,2013-04-16 06:07:00,
2013-04-16 00:12:00,27.0,27.0,29.73,NW,310,7.0,9.0,98,-99.99,,,-99.99,,2013-04-16 06:12:00,
2013-04-16 00:17:00,28.0,27.0,29.73,North,0,7.0,9.0,98,-99.99,,,-99.99,,2013-04-16 06:17:00,
2013-04-16 00:27:00,28.0,27.0,29.73,NNW,330,6.0,7.0,97,-99.99,,,-99.99,,2013-04-16 06:27:00,
2013-04-16 00:37:00,27.0,27.0,29.73,NNE,30,6.0,8.0,97,-99.99,,,-99.99,,2013-04-16 06:37:00,
2013-04-16 00:42:00,27.0,26.0,29.73,North,0,6.0,7.0,97,-99.99,,,-99.99,,2013-04-16 06:42:00,
2013-04-16 00:52:00,27.0,26.0,29.73,NE,50,6.0,6.0,97,-99.99,,,-99.99,,2013-04-16 06:52:00,
2013-04-16 00:57:00,27.0,26.0,29.73,NNE,30,0.0,6.0,97,-99.99,,,-99.99,,2013-04-16 06:57:00,
2013-04-16 01:02:00,27.0,26.0,29.73,North,350,4.0,5.0,97,-99.99,,,-99.99,,2013-04-16 07:02:00,
2013-04-16 01:12:00,27.0,27.0,29.73,North,10,0.0,0.0,97,-99.99,,,-99.99,,2013-04-16 07:12:00,
2013-04-16 01:17:00,27.0,26.0,29.73,North,10,0.0,3.0,97,-99.99,,,-99.99,,2013-04-16 07:17:00,
2013-04-16 01:22:00,27.0,26.0,29.73,North,10,0.0,0.0,97,-99.99,,,-99.99,,2013-04-16 07:22:00,
2013-04-16 01:27:00,27.0,26.0,29.73,North,10,0.0,0.0,97,-99.99,,,-99.99,,2013-04-16 07:27:00,
2013-04-16 01:37:00,27.0,26.0,29.73,North,10,0.0,0.0,98,-99.99,,,-99.99,,2013-04-16 07:37:00,
2013-04-16 01:42:00,27.0,27.0,29.73,NNW,340,4.0,0.0,98,-99.99,,,-99.99,,2013-04-16 07:42:00,
2013-04-16 01:47:00,27.0,26.0,29.73,NE,50,0.0,4.0,97,-99.99,,,-99.99,,2013-04-16 07:47:00,
2013-04-16 01:57:00,27.0,26.0,29.73,North,350,6.0,6.0,97,-99.99,,,-99.99,,2013-04-16 07:57:00,
2013-04-16 02:07:00,27.0,26.0,29.73,NW,310,4.0,6.0,97,-99.99,,,-99.99,,2013-04-16 08:07:00,
2013-04-16 02:12:00,27.0,26.0,29.73,NW,320,6.0,6.0,97,-99.99,,,-99.99,,2013-04-16 08:12:00,
2013-04-16 02:17:00,27.0,26.0,29.73,NNW,330,9.0,9.0,98,-99.99,,,-99.99,,2013-04-16 08:17:00,
2013-04-16 02:22:00,27.0,26.0,29.72,NW,310,5.0,8.0,98,-99.99,,,-99.99,,2013-04-16 08:22:00,
2013-04-16 02:27:00,27.0,26.0,29.72,North,350,6.0,7.0,98,-99.99,,,-99.99,,2013-04-16 08:27:00,
2013-04-16 02:32:00,27.0,26.0,29.72,NNE,30,3.0,7.0,98,-99.99,,,-99.99,,2013-04-16 08:32:00,
2013-04-16 02:42:00,27.0,26.0,29.73,North,10,0.0,0.0,98,-99.99,,,-99.99,,2013-04-16 08:42:00,
2013-04-16 02:52:00,27.0,26.0,29.73,North,10,0.0,0.0,98,-99.99,,,-99.99,,2013-04-16 08:52:00,
2013-04-16 02:57:00,26.0,26.0,29.73,North,10,0.0,0.0,98,-99.99,,,-99.99,,2013-04-16 08:57:00,
2013-04-16 03:02:00,26.0,26.0,29.73,North,10,0.0,0.0,98,-99.99,,,-99.99,,2013-04-16 09:02:00,
2013-04-16 03:12:00,26.0,25.0,29.73,North,0,5.0,0.0,98,-99.99,,,-99.99,,2013-04-16 09:12:00,
2013-04-16 03:22:00,25.0,25.0,29.73,NNW,330,6.0,6.0,97,-99.99,,,-99.99,,2013-04-16 09:22:00,
2013-04-16 03:32:00,24.0,24.0,29.73,NNW,340,6.0,9.0,97,-99.99,,,-99.99,,2013-04-16 09:32:00,
2013-04-16 03:42:00,24.0,24.0,29.73,NW,310,3.0,6.0,99,-99.99,,,-99.99,,2013-04-16 09:42:00,
2013-04-16 03:52:00,24.0,23.0,29.74,NW,320,0.0,1.0,98,-99.99,,,-99.99,,2013-04-16 09:52:00,
2013-04-16 03:57:00,24.0,23.0,29.74,NW,320,0.0,0.0,98,-99.99,,,-99.99,,2013-04-16 09:57:00,
2013-04-16 04:07:00,23.0,23.0,29.73,NW,320,0.0,0.0,97,-99.99,,,-99.99,,2013-04-16 10:07:00,
2013-04-16 04:12:00,23.0,22.0,29.74,NW,320,0.0,0.0,97,-99.99,,,-99.99,,2013-04-16 10:12:00,
2013-04-16 04:17:00,23.0,22.0,29.73,NW,320,0.0,0.0,97,-99.99,,,-99.99,,2013-04-16 10:17:00,
2013-04-16 04:22:00,22.0,22.0,29.73,NW,320,0.0,0.0,98,-99.99,,,-99.99,,2013-04-16 10:22:00,
2013-04-16 04:32:00,22.0,22.0,29.73,NNW,330,0.0,7.0,99,-99.99,,,-99.99,,2013-04-16 10:32:00,
2013-04-16 04:37:00,22.0,21.0,29.73,NW,310,5.0,7.0,97,-99.99,,,-99.99,,2013-04-16 10:37:00,
2013-04-16 04:47:00,21.0,21.0,29.74,North,350,5.0,7.0,97,-99.99,,,-99.99,,2013-04-16 10:47:00,
2013-04-16 04:57:00,21.0,20.0,29.74,West,260,0.0,4.0,97,-99.99,,,-99.99,,2013-04-16 10:57:00,
2013-04-16 05:02:00,21.0,20.0,29.74,West,260,0.0,0.0,98,-99.99,,,-99.99,,2013-04-16 11:02:00,
2013-04-16 05:07:00,21.0,21.0,29.74,West,260,0.0,0.0,98,-99.99,,,-99.99,,2013-04-16 11:07:00,
2013-04-16 05:12:00,21.0,20.0,29.74,NNW,340,4.0,5.0,97,-99.99,,,-99.99,,2013-04-16 11:12:00,
2013-04-16 05:17:00,21.0,20.0,29.74,NW,320,7.0,7.0,97,-99.99,,,-99.99,,2013-04-16 11:17:00,
2013-04-16 05:22:00,21.0,21.0,29.75,NNW,340,6.0,6.0,98,-99.99,,,-99.99,,2013-04-16 11:22:00,
2013-04-16 05:27:00,21.0,21.0,29.74,NNW,330,7.0,7.0,98,-99.99,,,-99.99,,2013-04-16 11:27:00,
2013-04-16 05:37:00,22.0,21.0,29.74,WNW,300,0.0,7.0,98,-99.99,,,-99.99,,2013-04-16 11:37:00,
2013-04-16 05:42:00,22.0,21.0,29.74,North,0,5.0,5.0,98,-99.99,,,-99.99,,2013-04-16 11:42:00,
2013-04-16 05:47:00,22.0,21.0,29.74,North,10,5.0,5.0,98,-99.99,,,-99.99,,2013-04-16 11:47:00,
2013-04-16 05:52:00,22.0,21.0,29.74,NNW,330,6.0,6.0,97,-99.99,,,-99.99,,2013-04-16 11:52:00,
2013-04-16 05:57:00,22.0,21.0,29.75,WNW,290,0.0,7.0,97,-99.99,,,-99.99,,2013-04-16 11:57:00,
2013-04-16 06:02:00,22.0,21.0,29.75,NNW,330,5.0,5.0,97,-99.99,,,-99.99,,2013-04-16 12:02:00,
2013-04-16 06:12:00,22.0,21.0,29.75,South,180,0.0,4.0,97,-99.99,,,-99.99,,2013-04-16 12:12:00,
2013-04-16 06:17:00,22.0,21.0,29.74,North,10,5.0,0.0,97,-99.99,,,-99.99,,2013-04-16 12:17:00,
2013-04-16 06:22:00,22.0,21.0,29.75,NNW,330,0.0,5.0,97,-99.99,,,-99.99,,2013-04-16 12:22:00,
2013-04-16 06:27:00,22.0,21.0,29.75,NNE,20,1.0,0.0,97,-99.99,,,-99.99,,2013-04-16 12:27:00,
2013-04-16 06:32:00,22.0,21.0,29.75,NNW,340,7.0,7.0,97,-99.99,,,-99.99,,2013-04-16 12:32:00,
2013-04-16 06:37:00,23.0,22.0,29.75,NNW,340,4.0,8.0,97,-99.99,,,-99.99,,2013-04-16 12:37:00,
2013-04-16 06:42:00,23.0,22.0,29.75,NNW,330,5.0,6.0,97,-99.99,,,-99.99,,2013-04-16 12:42:00,
2013-04-16 06:47:00,23.0,22.0,29.75,West,280,3.0,5.0,97,-99.99,,,-99.99,,2013-04-16 12:47:00,
2013-04-16 06:52:00,23.0,22.0,29.75,NNW,340,6.0,6.0,97,-99.99,,,-99.99,,2013-04-16 12:52:00,
2013-04-16 07:02:00,23.0,22.0,29.76,NW,320,6.0,6.0,95,-99.99,,,-99.99,,2013-04-16 13:02:00,
2013-04-16 07:12:00,24.0,22.0,29.76,West,280,6.0,6.0,95,-99.99,,,-99.99,,2013-04-16 13:12:00,
2013-04-16 07:17:00,24.0,22.0,29.75,NW,310,6.0,6.0,94,-99.99,,,-99.99,,2013-04-16 13:17:00,
2013-04-16 07:22:00,24.0,22.0,29.76,NNW,330,5.0,7.0,94,-99.99,,,-99.99,,2013-04-16 13:22:00,
2013-04-16 07:32:00,25.0,23.0,29.77,NNW,340,9.0,9.0,93,-99.99,,,-99.99,,2013-04-16 13:32:00,
2013-04-16 07:37:00,25.0,23.0,29.77,NNW,330,5.0,8.0,92,-99.99,,,-99.99,,2013-04-16 13:37:00,
2013-04-16 07:47:00,26.0,24.0,29.77,West,280,0.0,5.0,90,-99.99,,,-99.99,,2013-04-16 13:47:00,
2013-04-16 07:52:00,27.0,24.0,29.76,West,260,0.0,4.0,89,-99.99,,,-99.99,,2013-04-16 13:52:00,
2013-04-16 07:57:00,27.0,24.0,29.77,NNW,330,9.0,9.0,89,-99.99,,,-99.99,,2013-04-16 13:57:00,
2013-04-16 08:02:00,28.0,25.0,29.77,NNW,340,5.0,10.0,88,-99.99,,,-99.99,,2013-04-16 14:02:00,
2013-04-16 08:07:00,28.0,25.0,29.77,NE,40,0.0,10.0,87,-99.99,,,-99.99,,2013-04-16 14:07:00,
2013-04-16 08:17:00,29.0,25.0,29.77,WNW,300,8.0,8.0,86,-99.99,,,-99.99,,2013-04-16 14:17:00,
2013-04-16 08:27:00,30.0,26.0,29.77,NNE,20,0.0,8.0,85,-99.99,,,-99.99,,2013-04-16 14:27:00,
2013-04-16 08:32:00,31.0,26.0,29.77,NNW,330,7.0,7.0,82,-99.99,,,-99.99,,2013-04-16 14:32:00,
2013-04-16 08:37:00,32.0,26.0,29.77,NW,310,5.0,7.0,80,-99.99,,,-99.99,,2013-04-16 14:37:00,
2013-04-16 08:42:00,32.0,27.0,29.77,NW,320,4.0,8.0,80,-99.99,,,-99.99,,2013-04-16 14:42:00,
2013-04-16 08:52:00,34.0,28.0,29.77,NW,320,4.0,4.0,76,-99.99,,,-99.99,,2013-04-16 14:52:00,
2013-04-16 08:57:00,35.0,28.0,29.76,NW,320,0.0,6.0,74,-99.99,,,-99.99,,2013-04-16 14:57:00,
2013-04-16 09:02:00,36.0,28.0,29.77,West,270,6.0,6.0,74,-99.99,,,-99.99,,2013-04-16 15:02:00,
2013-04-16 09:07:00,37.0,29.0,29.76,NNW,330,5.0,6.0,73,-99.99,,,-99.99,,2013-04-16 15:07:00,
2013-04-16 09:12:00,37.0,29.0,29.76,North,0,3.0,7.0,72,-99.99,,,-99.99,,2013-04-16 15:12:00,
2013-04-16 09:22:00,39.0,29.0,29.76,North,0,0.0,4.0,69,-99.99,,,-99.99,,2013-04-16 15:22:00,
2013-04-16 09:32:00,40.0,30.0,29.75,North,0,0.0,3.0,66,-99.99,,,-99.99,,2013-04-16 15:32:00,
2013-04-16 09:37:00,41.0,30.0,29.75,North,0,0.0,0.0,64,-99.99,,,-99.99,,2013-04-16 15:37:00,
2013-04-16 09:42:00,42.0,30.0,29.74,North,10,0.0,0.0,63,-99.99,,,-99.99,,2013-04-16 15:42:00,
2013-04-16 09:47:00,43.0,31.0,29.74,ESE,120,3.0,9.0,63,-99.99,,,-99.99,,2013-04-16 15:47:00,
2013-04-16 09:57:00,44.0,30.0,29.74,SSE,150,17.0,18.0,57,-99.99,,,-99.99,,2013-04-16 15:57:00,
2013-04-16 10:07:00,44.0,29.0,29.74,SSE,160,16.0,19.0,55,-99.99,,,-99.99,,2013-04-16 16:07:00,
2013-04-16 10:17:00,44.0,28.0,29.73,South,170,16.0,25.0,53,-99.99,,,-99.99,,2013-04-16 16:17:00,
2013-04-16 10:27:00,44.0,29.0,29.73,South,180,19.0,20.0,54,-99.99,,,-99.99,,2013-04-16 16:27:00,
2013-04-16 10:37:00,45.0,29.0,29.73,South,190,16.0,19.0,53,-99.99,,,-99.99,,2013-04-16 16:37:00,
2013-04-16 10:47:00,45.0,29.0,29.72,SSE,150,14.0,20.0,53,-99.99,,,-99.99,,2013-04-16 16:47:00,
2013-04-16 10:52:00,45.0,28.0,29.72,SE,140,17.0,20.0,51,-99.99,,,-99.99,,2013-04-16 16:52:00,
2013-04-16 10:57:00,45.0,29.0,29.72,South,180,14.0,19.0,52,-99.99,,,-99.99,,2013-04-16 16:57:00,
2013-04-16 11:07:00,45.0,28.0,29.73,SSW,200,20.0,20.0,52,-99.99,,,-99.99,,2013-04-16 17:07:00,
2013-04-16 11:12:00,45.0,29.0,29.72,SSE,160,11.0,19.0,52,-99.99,,,-99.99,,2013-04-16 17:12:00,
2013-04-16 11:22:00,46.0,29.0,29.72,South,180,14.0,18.0,50,-99.99,,,-99.99,,2013-04-16 17:22:00,
2013-04-16 11:27:00,46.0,28.0,29.71,South,180,15.0,25.0,50,-99.99,,,-99.99,,2013-04-16 17:27:00,
2013-04-16 11:37:00,47.0,29.0,29.71,South,170,29.0,29.0,49,-99.99,,,-99.99,,2013-04-16 17:37:00,
2013-04-16 11:47:00,48.0,29.0,29.71,South,190,12.0,21.0,48,-99.99,,,-99.99,,2013-04-16 17:47:00,
2013-04-16 11:57:00,48.0,28.0,29.71,SSE,160,11.0,25.0,46,-99.99,,,-99.99,,2013-04-16 17:57:00,
2013-04-16 12:07:00,48.0,28.0,29.71,South,190,23.0,23.0,45,-99.99,,,-99.99,,2013-04-16 18:07:00,
2013-04-16 12:12:00,48.0,28.0,29.71,South,180,12.0,24.0,45,-99.99,,,-99.99,,2013-04-16 18:12:00,
2013-04-16 12:22:00,48.0,27.0,29.70,SSE,160,13.0,21.0,43,-99.99,,,-99.99,,2013-04-16 18:22:00,
2013-04-16 12:27:00,48.0,27.0,29.70,South,180,24.0,24.0,44,-99.99,,,-99.99,,2013-04-16 18:27:00,
2013-04-16 12:32:00,48.0,28.0,29.70,South,170,16.0,24.0,44,-99.99,,,-99.99,,2013-04-16 18:32:00,
2013-04-16 12:37:00,49.0,28.0,29.69,South,180,15.0,25.0,44,-99.99,,,-99.99,,2013-04-16 18:37:00,
2013-04-16 12:42:00,49.0,27.0,29.70,South,170,27.0,27.0,43,-99.99,,,-99.99,,2013-04-16 18:42:00,
2013-04-16 12:52:00,50.0,28.0,29.69,SSE,160,26.0,26.0,44,-99.99,,,-99.99,,2013-04-16 18:52:00,
2013-04-16 12:57:00,50.0,28.0,29.69,SSW,200,19.0,31.0,43,-99.99,,,-99.99,,2013-04-16 18:57:00,
2013-04-16 13:02:00,50.0,28.0,29.68,South,180,18.0,36.0,42,-99.99,,,-99.99,,2013-04-16 19:02:00,
2013-04-16 13:07:00,50.0,28.0,29.68,SSE,160,16.0,33.0,43,-99.99,,,-99.99,,2013-04-16 19:07:00,
2013-04-16 13:17:00,50.0,28.0,29.68,SSE,160,22.0,31.0,44,-99.99,,,-99.99,,2013-04-16 19:17:00,
2013-04-16 13:22:00,50.0,28.0,29.68,South,190,27.0,27.0,43,-99.99,,,-99.99,,2013-04-16 19:22:00,
2013-04-16 13:27:00,50.0,28.0,29.68,South,190,16.0,35.0,42,-99.99,,,-99.99,,2013-04-16 19:27:00,
2013-04-16 13:37:00,50.0,28.0,29.67,South,190,21.0,27.0,43,-99.99,,,-99.99,,2013-04-16 19:37:00,
2013-04-16 13:42:00,50.0,28.0,29.68,South,190,24.0,30.0,42,-99.99,,,-99.99,,2013-04-16 19:42:00,
2013-04-16 13:47:00,50.0,27.0,29.68,South,180,24.0,31.0,41,-99.99,,,-99.99,,2013-04-16 19:47:00,
2013-04-16 13:52:00,51.0,27.0,29.67,South,170,26.0,31.0,41,-99.99,,,-99.99,,2013-04-16 19:52:00,
2013-04-16 14:02:00,50.0,27.0,29.68,South,190,25.0,35.0,41,-99.99,,,-99.99,,2013-04-16 20:02:00,
2013-04-16 14:12:00,51.0,28.0,29.67,SSE,160,26.0,33.0,41,-99.99,,,-99.99,,2013-04-16 20:12:00,
2013-04-16 14:17:00,51.0,27.0,29.68,SSE,160,19.0,32.0,40,-99.99,,,-99.99,,2013-04-16 20:17:00,
2013-04-16 14:27:00,51.0,26.0,29.67,South,170,31.0,31.0,39,-99.99,,,-99.99,,2013-04-16 20:27:00,
2013-04-16 14:37:00,51.0,27.0,29.67,South,170,26.0,31.0,40,-99.99,,,-99.99,,2013-04-16 20:37:00,
2013-04-16 14:47:00,51.0,27.0,29.68,South,180,15.0,32.0,40,-99.99,,,-99.99,,2013-04-16 20:47:00,
2013-04-16 14:52:00,51.0,27.0,29.67,SSW,210,24.0,36.0,40,-99.99,,,-99.99,,2013-04-16 20:52:00,
2013-04-16 14:57:00,51.0,26.0,29.68,SSE,160,27.0,32.0,38,-99.99,,,-99.99,,2013-04-16 20:57:00,
2013-04-16 15:02:00,51.0,26.0,29.67,South,180,21.0,28.0,38,-99.99,,,-99.99,,2013-04-16 21:02:00,
2013-04-16 15:12:00,51.0,26.0,29.67,South,190,16.0,25.0,39,-99.99,,,-99.99,,2013-04-16 21:12:00,
2013-04-16 15:22:00,51.0,26.0,29.68,South,190,16.0,28.0,39,-99.99,,,-99.99,,2013-04-16 21:22:00,
2013-04-16 15:27:00,51.0,27.0,29.66,South,170,18.0,24.0,40,-99.99,,,-99.99,,2013-04-16 21:27:00,
2013-04-16 15:37:00,50.0,27.0,29.66,SE,130,22.0,28.0,41,-99.99,,,-99.99,,2013-04-16 21:37:00,
2013-04-16 15:42:00,50.0,27.0,29.67,South,170,22.0,27.0,40,-99.99,,,-99.99,,2013-04-16 21:42:00,
2013-04-16 15:47:00,50.0,26.0,29.65,SSE,160,18.0,26.0,39,-99.99,,,-99.99,,2013-04-16 21:47:00,
2013-04-16 15:57:00,50.0,27.0,29.65,South,180,24.0,29.0,40,-99.99,,,-99.99,,2013-04-16 21:57:00,
2013-04-16 16:02:00,50.0,26.0,29.65,SSE,150,21.0,25.0,39,-99.99,,,-99.99,,2013-04-16 22:02:00,
2013-04-16 16:12:00,51.0,27.0,29.65,South,190,10.0,17.0,40,-99.99,,,-99.99,,2013-04-16 22:12:00,
2013-04-16 16:22:00,52.0,28.0,29.65,South,190,19.0,19.0,38,-99.99,,,-99.99,,2013-04-16 22:22:00,
2013-04-16 16:27:00,53.0,26.0,29.64,South,190,13.0,23.0,35,-99.99,,,-99.99,,2013-04-16 22:27:00,
2013-04-16 16:32:00,53.0,27.0,29.64,SSE,160,22.0,22.0,37,-99.99,,,-99.99,,2013-04-16 22:32:00,
2013-04-16 16:37:00,52.0,25.0,29.65,SSW,210,10.0,28.0,35,-99.99,,,-99.99,,2013-04-16 22:37:00,
2013-04-16 16:47:00,52.0,25.0,29.64,SSE,160,14.0,21.0,34,-99.99,,,-99.99,,2013-04-16 22:47:00,
2013-04-16 16:57:00,52.0,26.0,29.64,South,180,30.0,30.0,36,-99.99,,,-99.99,,2013-04-16 22:57:00,
2013-04-16 17:02:00,52.0,24.0,29.64,WSW,240,13.0,31.0,34,-99.99,,,-99.99,,2013-04-16 23:02:00,
2013-04-16 17:07:00,52.0,24.0,29.63,South,190,9.0,18.0,33,-99.99,,,-99.99,,2013-04-16 23:07:00,
2013-04-16 17:12:00,52.0,24.0,29.65,South,190,6.0,14.0,34,-99.99,,,-99.99,,2013-04-16 23:12:00,
2013-04-16 17:17:00,52.0,25.0,29.64,South,180,12.0,14.0,36,-99.99,,,-99.99,,2013-04-16 23:17:00,
2013-04-16 17:27:00,51.0,24.0,29.65,South,180,16.0,16.0,35,-99.99,,,-99.99,,2013-04-16 23:27:00,
2013-04-16 17:32:00,51.0,24.0,29.64,South,170,7.0,15.0,35,-99.99,,,-99.99,,2013-04-16 23:32:00,
2013-04-16 17:42:00,51.0,24.0,29.64,SSW,200,9.0,17.0,35,-99.99,,,-99.99,,2013-04-16 23:42:00,
2013-04-16 17:47:00,50.0,24.0,29.66,WSW,250,11.0,15.0,36,-99.99,,,-99.99,,2013-04-16 23:47:00,
2013-04-16 17:52:00,50.0,23.0,29.65,WSW,250,9.0,14.0,35,-99.99,,,-99.99,,2013-04-16 23:52:00,
2013-04-16 18:02:00,50.0,26.0,29.67,NNW,330,10.0,19.0,39,-99.99,,,-99.99,,2013-04-17 00:02:00,
2013-04-16 18:07:00,49.0,26.0,29.66,NNW,330,0.0,11.0,42,-99.99,,,-99.99,,2013-04-17 00:07:00,
2013-04-16 18:17:00,48.0,27.0,29.67,NW,310,9.0,9.0,44,-99.99,,,-99.99,,2013-04-17 00:17:00,
2013-04-16 18:27:00,48.0,26.0,29.67,West,270,15.0,15.0,42,-99.99,,,-99.99,,2013-04-17 00:27:00,
2013-04-16 18:37:00,47.0,27.0,29.67,WNW,300,9.0,14.0,45,-99.99,,,-99.99,,2013-04-17 00:37:00,
2013-04-16 18:42:00,47.0,27.0,29.68,WNW,290,6.0,12.0,47,-99.99,,,-99.99,,2013-04-17 00:42:00,
2013-04-16 18:52:00,47.0,27.0,29.68,WNW,290,8.0,14.0,47,-99.99,,,-99.99,,2013-04-17 00:52:00,
2013-04-16 18:57:00,46.0,27.0,29.68,West,270,3.0,11.0,47,-99.99,,,-99.99,,2013-04-17 00:57:00,
2013-04-16 19:07:00,46.0,27.0,29.68,NNW,330,3.0,7.0,47,-99.99,,,-99.99,,2013-04-17 01:07:00,
2013-04-16 19:17:00,46.0,26.0,29.68,WSW,250,11.0,11.0,45,-99.99,,,-99.99,,2013-04-17 01:17:00,
2013-04-16 19:22:00,46.0,27.0,29.69,WNW,290,8.0,13.0,47,-99.99,,,-99.99,,2013-04-17 01:22:00,
2013-04-16 19:32:00,46.0,26.0,29.69,West,280,7.0,12.0,45,-99.99,,,-99.99,,2013-04-17 01:32:00,
2013-04-16 19:37:00,46.0,26.0,29.68,SW,230,7.0,10.0,46,-99.99,,,-99.99,,2013-04-17 01:37:00,
2013-04-16 19:47:00,45.0,27.0,29.69,SSW,200,6.0,6.0,50,-99.99,,,-99.99,,2013-04-17 01:47:00,
2013-04-16 19:57:00,44.0,27.0,29.70,West,260,0.0,15.0,50,-99.99,,,-99.99,,2013-04-17 01:57:00,
2013-04-16 20:02:00,44.0,27.0,29.70,SE,140,8.0,8.0,51,-99.99,,,-99.99,,2013-04-17 02:02:00,
2013-04-16 20:07:00,44.0,28.0,29.70,SW,230,7.0,9.0,52,-99.99,,,-99.99,,2013-04-17 02:07:00,
2013-04-16 20:17:00,43.0,28.0,29.71,WSW,250,0.0,9.0,53,-99.99,,,-99.99,,2013-04-17 02:17:00,
2013-04-16 20:22:00,43.0,28.0,29.71,SW,220,6.0,6.0,55,-99.99,,,-99.99,,2013-04-17 02:22:00,
2013-04-16 20:27:00,43.0,27.0,29.71,SSW,200,6.0,10.0,53,-99.99,,,-99.99,,2013-04-17 02:27:00,
2013-04-16 20:37:00,43.0,26.0,29.71,SW,220,11.0,15.0,52,-99.99,,,-99.99,,2013-04-17 02:37:00,
2013-04-16 20:47:00,43.0,26.0,29.72,WSW,240,9.0,14.0,51,-99.99,,,-99.99,,2013-04-17 02:47:00,
2013-04-16 20:52:00,43.0,26.0,29.73,WSW,240,11.0,16.0,51,-99.99,,,-99.99,,2013-04-17 02:52:00,
2013-04-16 21:02:00,43.0,27.0,29.73,WNW,300,0.0,11.0,54,-99.99,,,-99.99,,2013-04-17 03:02:00,
2013-04-16 21:07:00,42.0,28.0,29.74,SW,230,8.0,0.0,56,-99.99,,,-99.99,,2013-04-17 03:07:00,
2013-04-16 21:12:00,42.0,28.0,29.74,WSW,250,6.0,8.0,56,-99.99,,,-99.99,,2013-04-17 03:12:00,
2013-04-16 21:17:00,42.0,28.0,29.75,West,280,7.0,8.0,57,-99.99,,,-99.99,,2013-04-17 03:17:00,
2013-04-16 21:22:00,41.0,27.0,29.75,West,280,7.0,7.0,57,-99.99,,,-99.99,,2013-04-17 03:22:00,
2013-04-16 21:27:00,41.0,27.0,29.75,NW,320,8.0,8.0,58,-99.99,,,-99.99,,2013-04-17 03:27:00,
2013-04-16 21:37:00,41.0,29.0,29.75,WNW,300,0.0,8.0,62,-99.99,,,-99.99,,2013-04-17 03:37:00,
2013-04-16 21:47:00,40.0,29.0,29.75,North,0,7.0,7.0,64,-99.99,,,-99.99,,2013-04-17 03:47:00,
2013-04-16 21:52:00,40.0,29.0,29.76,NNE,30,3.0,11.0,65,-99.99,,,-99.99,,2013-04-17 03:52:00,
2013-04-16 21:57:00,40.0,30.0,29.76,West,280,0.0,9.0,67,-99.99,,,-99.99,,2013-04-17 03:57:00,
2013-04-16 22:02:00,40.0,29.0,29.77,WNW,290,0.0,4.0,66,-99.99,,,-99.99,,2013-04-17 04:02:00,
2013-04-16 22:07:00,40.0,29.0,29.77,West,270,0.0,3.0,66,-99.99,,,-99.99,,2013-04-17 04:07:00,
2013-04-16 22:12:00,39.0,30.0,29.77,SSE,160,7.0,7.0,68,-99.99,,,-99.99,,2013-04-17 04:12:00,
2013-04-16 22:17:00,39.0,31.0,29.77,South,180,8.0,8.0,71,-99.99,,,-99.99,,2013-04-17 04:17:00,
2013-04-16 22:22:00,39.0,31.0,29.77,South,180,8.0,9.0,73,-99.99,,,-99.99,,2013-04-17 04:22:00,
2013-04-16 22:27:00,38.0,31.0,29.78,SSE,160,10.0,10.0,75,-99.99,,,-99.99,,2013-04-17 04:27:00,
2013-04-16 22:32:00,38.0,31.0,29.78,South,190,10.0,13.0,76,-99.99,,,-99.99,,2013-04-17 04:32:00,
2013-04-16 22:37:00,38.0,31.0,29.78,SSE,160,11.0,15.0,76,-99.99,,,-99.99,,2013-04-17 04:37:00,
2013-04-16 22:42:00,38.0,31.0,29.78,SSE,160,13.0,14.0,78,-99.99,,,-99.99,,2013-04-17 04:42:00,
2013-04-16 22:52:00,37.0,31.0,29.78,SSE,150,10.0,17.0,79,-99.99,,,-99.99,,2013-04-17 04:52:00,
2013-04-16 23:02:00,37.0,31.0,29.78,South,170,15.0,18.0,80,-99.99,,,-99.99,,2013-04-17 05:02:00,
2013-04-16 23:07:00,37.0,32.0,29.78,South,180,12.0,14.0,81,-99.99,,,-99.99,,2013-04-17 05:07:00,
2013-04-16 23:17:00,36.0,32.0,29.78,South,190,7.0,12.0,83,-99.99,,,-99.99,,2013-04-17 05:17:00,
2013-04-16 23:22:00,36.0,32.0,29.78,South,180,6.0,11.0,83,-99.99,,,-99.99,,2013-04-17 05:22:00,
2013-04-16 23:32:00,35.0,31.0,29.78,SSW,200,8.0,10.0,85,-99.99,,,-99.99,,2013-04-17 05:32:00,
2013-04-16 23:42:00,35.0,31.0,29.78,SW,220,10.0,10.0,86,-99.99,,,-99.99,,2013-04-17 05:42:00,
2013-04-16 23:47:00,35.0,31.0,29.78,SSW,210,7.0,11.0,86,-99.99,,,-99.99,,2013-04-17 05:47:00,
2013-04-16 23:52:00,35.0,31.0,29.78,NW,320,5.0,10.0,85,-99.99,,,-99.99,,2013-04-17 05:52:00,
2013-04-16 23:57:00,35.0,31.0,29.78,NNE,20,0.0,7.0,84,-99.99,,,-99.99,,2013-04-17 05:57:00,